<?xml version="1.0" encoding="UTF-8" standalone="no" ?>
<gpx xmlns="http://www.topografix.com/GPX/1/1" xmlns:xsi="http://www.w3.org/2001/XMLSchema-instance" xsi:schemaLocation="http://www.topografix.com/GPX/1/1 http://www.topografix.com/GPX/1/1/gpx.xsd" version="1.1" creator="VisuGPX - https://www.visugpx.com">
  <metadata>
    <name>12095036-2020 09 23 Rando Longueval 12 Km Alain</name>
  </metadata>
  <trk>
    <name><![CDATA[12095036-2020 09 23 Rando Longueval 12 Km Alain]]></name>
    <trkseg>
      <trkpt lat="49.35827" lon="3.65324">
        <ele>100</ele>
        <time>2020-09-26T15:50:51Z</time>
      </trkpt>
      <trkpt lat="49.35824" lon="3.6533">
        <ele>100</ele>
        <time>2020-09-26T15:50:55Z</time>
      </trkpt>
      <trkpt lat="49.35827" lon="3.65324">
        <ele>100</ele>
        <time>2020-09-26T15:50:59Z</time>
      </trkpt>
      <trkpt lat="49.3584" lon="3.65319">
        <ele>99</ele>
        <time>2020-09-26T15:51:10Z</time>
      </trkpt>
      <trkpt lat="49.35858" lon="3.65333">
        <ele>97</ele>
        <time>2020-09-26T15:51:26Z</time>
      </trkpt>
      <trkpt lat="49.35869" lon="3.65327">
        <ele>96</ele>
        <time>2020-09-26T15:51:35Z</time>
      </trkpt>
      <trkpt lat="49.3587" lon="3.65306">
        <ele>96</ele>
        <time>2020-09-26T15:51:46Z</time>
      </trkpt>
      <trkpt lat="49.35883" lon="3.65261">
        <ele>95</ele>
        <time>2020-09-26T15:52:12Z</time>
      </trkpt>
      <trkpt lat="49.35905" lon="3.65212">
        <ele>92</ele>
        <time>2020-09-26T15:52:43Z</time>
      </trkpt>
      <trkpt lat="49.35931" lon="3.65168">
        <ele>88</ele>
        <time>2020-09-26T15:53:14Z</time>
      </trkpt>
      <trkpt lat="49.35931" lon="3.65144">
        <ele>87</ele>
        <time>2020-09-26T15:53:26Z</time>
      </trkpt>
      <trkpt lat="49.3592" lon="3.65095">
        <ele>86</ele>
        <time>2020-09-26T15:53:53Z</time>
      </trkpt>
      <trkpt lat="49.35923" lon="3.65075">
        <ele>86</ele>
        <time>2020-09-26T15:54:04Z</time>
      </trkpt>
      <trkpt lat="49.35981" lon="3.64979">
        <ele>82</ele>
        <time>2020-09-26T15:55:12Z</time>
      </trkpt>
      <trkpt lat="49.35998" lon="3.64962">
        <ele>81</ele>
        <time>2020-09-26T15:55:29Z</time>
      </trkpt>
      <trkpt lat="49.36028" lon="3.64908">
        <ele>81</ele>
        <time>2020-09-26T15:56:06Z</time>
      </trkpt>
      <trkpt lat="49.36071" lon="3.6485">
        <ele>83</ele>
        <time>2020-09-26T15:56:51Z</time>
      </trkpt>
      <trkpt lat="49.36083" lon="3.64826">
        <ele>83</ele>
        <time>2020-09-26T15:57:07Z</time>
      </trkpt>
      <trkpt lat="49.3611" lon="3.64794">
        <ele>86</ele>
        <time>2020-09-26T15:57:35Z</time>
      </trkpt>
      <trkpt lat="49.36109" lon="3.64783">
        <ele>86</ele>
        <time>2020-09-26T15:57:40Z</time>
      </trkpt>
      <trkpt lat="49.361" lon="3.64758">
        <ele>86</ele>
        <time>2020-09-26T15:57:55Z</time>
      </trkpt>
      <trkpt lat="49.36068" lon="3.64699">
        <ele>87</ele>
        <time>2020-09-26T15:58:35Z</time>
      </trkpt>
      <trkpt lat="49.36027" lon="3.64629">
        <ele>89</ele>
        <time>2020-09-26T15:59:24Z</time>
      </trkpt>
      <trkpt lat="49.36013" lon="3.64614">
        <ele>90</ele>
        <time>2020-09-26T15:59:38Z</time>
      </trkpt>
      <trkpt lat="49.36001" lon="3.64619">
        <ele>89</ele>
        <time>2020-09-26T15:59:48Z</time>
      </trkpt>
      <trkpt lat="49.35981" lon="3.64652">
        <ele>88</ele>
        <time>2020-09-26T16:00:11Z</time>
      </trkpt>
      <trkpt lat="49.35956" lon="3.64683">
        <ele>88</ele>
        <time>2020-09-26T16:00:37Z</time>
      </trkpt>
      <trkpt lat="49.3593" lon="3.64702">
        <ele>88</ele>
        <time>2020-09-26T16:01:00Z</time>
      </trkpt>
      <trkpt lat="49.35908" lon="3.64706">
        <ele>88</ele>
        <time>2020-09-26T16:01:18Z</time>
      </trkpt>
      <trkpt lat="49.35873" lon="3.64686">
        <ele>89</ele>
        <time>2020-09-26T16:01:48Z</time>
      </trkpt>
      <trkpt lat="49.35866" lon="3.64675">
        <ele>89</ele>
        <time>2020-09-26T16:01:56Z</time>
      </trkpt>
      <trkpt lat="49.35853" lon="3.6467">
        <ele>89</ele>
        <time>2020-09-26T16:02:07Z</time>
      </trkpt>
      <trkpt lat="49.35838" lon="3.64643">
        <ele>90</ele>
        <time>2020-09-26T16:02:25Z</time>
      </trkpt>
      <trkpt lat="49.35805" lon="3.6455">
        <ele>92</ele>
        <time>2020-09-26T16:03:20Z</time>
      </trkpt>
      <trkpt lat="49.35789" lon="3.64529">
        <ele>92</ele>
        <time>2020-09-26T16:03:37Z</time>
      </trkpt>
      <trkpt lat="49.35751" lon="3.645">
        <ele>92</ele>
        <time>2020-09-26T16:04:11Z</time>
      </trkpt>
      <trkpt lat="49.35734" lon="3.64479">
        <ele>92</ele>
        <time>2020-09-26T16:04:29Z</time>
      </trkpt>
      <trkpt lat="49.35731" lon="3.64471">
        <ele>92</ele>
        <time>2020-09-26T16:04:33Z</time>
      </trkpt>
      <trkpt lat="49.35729" lon="3.64319">
        <ele>96</ele>
        <time>2020-09-26T16:05:53Z</time>
      </trkpt>
      <trkpt lat="49.35723" lon="3.64296">
        <ele>98</ele>
        <time>2020-09-26T16:06:06Z</time>
      </trkpt>
      <trkpt lat="49.35727" lon="3.64231">
        <ele>104</ele>
        <time>2020-09-26T16:06:40Z</time>
      </trkpt>
      <trkpt lat="49.35719" lon="3.64184">
        <ele>108</ele>
        <time>2020-09-26T16:07:05Z</time>
      </trkpt>
      <trkpt lat="49.35708" lon="3.64153">
        <ele>109</ele>
        <time>2020-09-26T16:07:23Z</time>
      </trkpt>
      <trkpt lat="49.35714" lon="3.64114">
        <ele>112</ele>
        <time>2020-09-26T16:07:44Z</time>
      </trkpt>
      <trkpt lat="49.35691" lon="3.64049">
        <ele>111</ele>
        <time>2020-09-26T16:08:23Z</time>
      </trkpt>
      <trkpt lat="49.35694" lon="3.64025">
        <ele>113</ele>
        <time>2020-09-26T16:08:36Z</time>
      </trkpt>
      <trkpt lat="49.35691" lon="3.64003">
        <ele>114</ele>
        <time>2020-09-26T16:08:47Z</time>
      </trkpt>
      <trkpt lat="49.35674" lon="3.63967">
        <ele>112</ele>
        <time>2020-09-26T16:09:11Z</time>
      </trkpt>
      <trkpt lat="49.3566" lon="3.63897">
        <ele>114</ele>
        <time>2020-09-26T16:09:49Z</time>
      </trkpt>
      <trkpt lat="49.35633" lon="3.63868">
        <ele>119</ele>
        <time>2020-09-26T16:10:15Z</time>
      </trkpt>
      <trkpt lat="49.35623" lon="3.63874">
        <ele>119</ele>
        <time>2020-09-26T16:10:24Z</time>
      </trkpt>
      <trkpt lat="49.35616" lon="3.63873">
        <ele>119</ele>
        <time>2020-09-26T16:10:29Z</time>
      </trkpt>
      <trkpt lat="49.35597" lon="3.63885">
        <ele>119</ele>
        <time>2020-09-26T16:10:46Z</time>
      </trkpt>
      <trkpt lat="49.35559" lon="3.63887">
        <ele>123</ele>
        <time>2020-09-26T16:11:16Z</time>
      </trkpt>
      <trkpt lat="49.35535" lon="3.63899">
        <ele>125</ele>
        <time>2020-09-26T16:11:37Z</time>
      </trkpt>
      <trkpt lat="49.35507" lon="3.63932">
        <ele>124</ele>
        <time>2020-09-26T16:12:05Z</time>
      </trkpt>
      <trkpt lat="49.35489" lon="3.63971">
        <ele>126</ele>
        <time>2020-09-26T16:12:30Z</time>
      </trkpt>
      <trkpt lat="49.35478" lon="3.64012">
        <ele>127</ele>
        <time>2020-09-26T16:12:53Z</time>
      </trkpt>
      <trkpt lat="49.35476" lon="3.64091">
        <ele>125</ele>
        <time>2020-09-26T16:13:34Z</time>
      </trkpt>
      <trkpt lat="49.35466" lon="3.64157">
        <ele>124</ele>
        <time>2020-09-26T16:14:09Z</time>
      </trkpt>
      <trkpt lat="49.3547" lon="3.64187">
        <ele>122</ele>
        <time>2020-09-26T16:14:25Z</time>
      </trkpt>
      <trkpt lat="49.35469" lon="3.64232">
        <ele>121</ele>
        <time>2020-09-26T16:14:49Z</time>
      </trkpt>
      <trkpt lat="49.35461" lon="3.64272">
        <ele>122</ele>
        <time>2020-09-26T16:15:11Z</time>
      </trkpt>
      <trkpt lat="49.35465" lon="3.64285">
        <ele>120</ele>
        <time>2020-09-26T16:15:18Z</time>
      </trkpt>
      <trkpt lat="49.35473" lon="3.64293">
        <ele>118</ele>
        <time>2020-09-26T16:15:26Z</time>
      </trkpt>
      <trkpt lat="49.35488" lon="3.643">
        <ele>114</ele>
        <time>2020-09-26T16:15:38Z</time>
      </trkpt>
      <trkpt lat="49.3551" lon="3.64299">
        <ele>110</ele>
        <time>2020-09-26T16:15:56Z</time>
      </trkpt>
      <trkpt lat="49.35527" lon="3.64309">
        <ele>108</ele>
        <time>2020-09-26T16:16:11Z</time>
      </trkpt>
      <trkpt lat="49.35535" lon="3.64317">
        <ele>107</ele>
        <time>2020-09-26T16:16:18Z</time>
      </trkpt>
      <trkpt lat="49.35538" lon="3.64331">
        <ele>106</ele>
        <time>2020-09-26T16:16:26Z</time>
      </trkpt>
      <trkpt lat="49.35532" lon="3.64395">
        <ele>103</ele>
        <time>2020-09-26T16:17:00Z</time>
      </trkpt>
      <trkpt lat="49.35511" lon="3.64438">
        <ele>104</ele>
        <time>2020-09-26T16:17:28Z</time>
      </trkpt>
      <trkpt lat="49.3548" lon="3.64536">
        <ele>105</ele>
        <time>2020-09-26T16:18:24Z</time>
      </trkpt>
      <trkpt lat="49.35474" lon="3.64575">
        <ele>102</ele>
        <time>2020-09-26T16:18:45Z</time>
      </trkpt>
      <trkpt lat="49.35489" lon="3.64606">
        <ele>99</ele>
        <time>2020-09-26T16:19:06Z</time>
      </trkpt>
      <trkpt lat="49.355" lon="3.6462">
        <ele>97</ele>
        <time>2020-09-26T16:19:17Z</time>
      </trkpt>
      <trkpt lat="49.35533" lon="3.64645">
        <ele>95</ele>
        <time>2020-09-26T16:19:46Z</time>
      </trkpt>
      <trkpt lat="49.35542" lon="3.6466">
        <ele>95</ele>
        <time>2020-09-26T16:19:57Z</time>
      </trkpt>
      <trkpt lat="49.35545" lon="3.64674">
        <ele>94</ele>
        <time>2020-09-26T16:20:05Z</time>
      </trkpt>
      <trkpt lat="49.35549" lon="3.64746">
        <ele>93</ele>
        <time>2020-09-26T16:20:42Z</time>
      </trkpt>
      <trkpt lat="49.35542" lon="3.64792">
        <ele>94</ele>
        <time>2020-09-26T16:21:07Z</time>
      </trkpt>
      <trkpt lat="49.3554" lon="3.64852">
        <ele>96</ele>
        <time>2020-09-26T16:21:38Z</time>
      </trkpt>
      <trkpt lat="49.35531" lon="3.64904">
        <ele>100</ele>
        <time>2020-09-26T16:22:06Z</time>
      </trkpt>
      <trkpt lat="49.35536" lon="3.64941">
        <ele>103</ele>
        <time>2020-09-26T16:22:26Z</time>
      </trkpt>
      <trkpt lat="49.3555" lon="3.64955">
        <ele>104</ele>
        <time>2020-09-26T16:22:40Z</time>
      </trkpt>
      <trkpt lat="49.35561" lon="3.64957">
        <ele>103</ele>
        <time>2020-09-26T16:22:48Z</time>
      </trkpt>
      <trkpt lat="49.35568" lon="3.64965">
        <ele>104</ele>
        <time>2020-09-26T16:22:55Z</time>
      </trkpt>
      <trkpt lat="49.35595" lon="3.64979">
        <ele>104</ele>
        <time>2020-09-26T16:23:18Z</time>
      </trkpt>
      <trkpt lat="49.35607" lon="3.64993">
        <ele>104</ele>
        <time>2020-09-26T16:23:30Z</time>
      </trkpt>
      <trkpt lat="49.35613" lon="3.64994">
        <ele>104</ele>
        <time>2020-09-26T16:23:35Z</time>
      </trkpt>
      <trkpt lat="49.35613" lon="3.65001">
        <ele>105</ele>
        <time>2020-09-26T16:23:39Z</time>
      </trkpt>
      <trkpt lat="49.35608" lon="3.64997">
        <ele>105</ele>
        <time>2020-09-26T16:23:43Z</time>
      </trkpt>
      <trkpt lat="49.35611" lon="3.64986">
        <ele>103</ele>
        <time>2020-09-26T16:23:50Z</time>
      </trkpt>
      <trkpt lat="49.3561" lon="3.6499">
        <ele>104</ele>
        <time>2020-09-26T16:23:52Z</time>
      </trkpt>
      <trkpt lat="49.35601" lon="3.64988">
        <ele>104</ele>
        <time>2020-09-26T16:23:59Z</time>
      </trkpt>
      <trkpt lat="49.35599" lon="3.64984">
        <ele>104</ele>
        <time>2020-09-26T16:24:02Z</time>
      </trkpt>
      <trkpt lat="49.35606" lon="3.64988">
        <ele>104</ele>
        <time>2020-09-26T16:24:08Z</time>
      </trkpt>
      <trkpt lat="49.35612" lon="3.64999">
        <ele>104</ele>
        <time>2020-09-26T16:24:15Z</time>
      </trkpt>
      <trkpt lat="49.35644" lon="3.6502">
        <ele>104</ele>
        <time>2020-09-26T16:24:43Z</time>
      </trkpt>
      <trkpt lat="49.35694" lon="3.65093">
        <ele>105</ele>
        <time>2020-09-26T16:25:38Z</time>
      </trkpt>
      <trkpt lat="49.35727" lon="3.65157">
        <ele>105</ele>
        <time>2020-09-26T16:26:21Z</time>
      </trkpt>
      <trkpt lat="49.35775" lon="3.65218">
        <ele>104</ele>
        <time>2020-09-26T16:27:11Z</time>
      </trkpt>
      <trkpt lat="49.3578" lon="3.65239">
        <ele>105</ele>
        <time>2020-09-26T16:27:22Z</time>
      </trkpt>
      <trkpt lat="49.35772" lon="3.65258">
        <ele>107</ele>
        <time>2020-09-26T16:27:34Z</time>
      </trkpt>
      <trkpt lat="49.35743" lon="3.65255">
        <ele>110</ele>
        <time>2020-09-26T16:27:57Z</time>
      </trkpt>
      <trkpt lat="49.35726" lon="3.65248">
        <ele>113</ele>
        <time>2020-09-26T16:28:12Z</time>
      </trkpt>
      <trkpt lat="49.35711" lon="3.65239">
        <ele>115</ele>
        <time>2020-09-26T16:28:24Z</time>
      </trkpt>
      <trkpt lat="49.3566" lon="3.65193">
        <ele>118</ele>
        <time>2020-09-26T16:29:12Z</time>
      </trkpt>
      <trkpt lat="49.35604" lon="3.65168">
        <ele>126</ele>
        <time>2020-09-26T16:29:58Z</time>
      </trkpt>
      <trkpt lat="49.35595" lon="3.65155">
        <ele>126</ele>
        <time>2020-09-26T16:30:08Z</time>
      </trkpt>
      <trkpt lat="49.35564" lon="3.65133">
        <ele>127</ele>
        <time>2020-09-26T16:30:36Z</time>
      </trkpt>
      <trkpt lat="49.35534" lon="3.65117">
        <ele>128</ele>
        <time>2020-09-26T16:31:01Z</time>
      </trkpt>
      <trkpt lat="49.35515" lon="3.65113">
        <ele>130</ele>
        <time>2020-09-26T16:31:16Z</time>
      </trkpt>
      <trkpt lat="49.35513" lon="3.65121">
        <ele>132</ele>
        <time>2020-09-26T16:31:21Z</time>
      </trkpt>
      <trkpt lat="49.35547" lon="3.65142">
        <ele>131</ele>
        <time>2020-09-26T16:31:50Z</time>
      </trkpt>
      <trkpt lat="49.35564" lon="3.65159">
        <ele>131</ele>
        <time>2020-09-26T16:32:07Z</time>
      </trkpt>
      <trkpt lat="49.35594" lon="3.65212">
        <ele>133</ele>
        <time>2020-09-26T16:32:43Z</time>
      </trkpt>
      <trkpt lat="49.35616" lon="3.65285">
        <ele>135</ele>
        <time>2020-09-26T16:33:25Z</time>
      </trkpt>
      <trkpt lat="49.35616" lon="3.65321">
        <ele>136</ele>
        <time>2020-09-26T16:33:44Z</time>
      </trkpt>
      <trkpt lat="49.35603" lon="3.65383">
        <ele>140</ele>
        <time>2020-09-26T16:34:18Z</time>
      </trkpt>
      <trkpt lat="49.35593" lon="3.65404">
        <ele>142</ele>
        <time>2020-09-26T16:34:31Z</time>
      </trkpt>
      <trkpt lat="49.35561" lon="3.65445">
        <ele>147</ele>
        <time>2020-09-26T16:35:05Z</time>
      </trkpt>
      <trkpt lat="49.35505" lon="3.65473">
        <ele>151</ele>
        <time>2020-09-26T16:35:52Z</time>
      </trkpt>
      <trkpt lat="49.35484" lon="3.65475">
        <ele>153</ele>
        <time>2020-09-26T16:36:09Z</time>
      </trkpt>
      <trkpt lat="49.35458" lon="3.65487">
        <ele>154</ele>
        <time>2020-09-26T16:36:31Z</time>
      </trkpt>
      <trkpt lat="49.35444" lon="3.65489">
        <ele>155</ele>
        <time>2020-09-26T16:36:42Z</time>
      </trkpt>
      <trkpt lat="49.35407" lon="3.65516">
        <ele>157</ele>
        <time>2020-09-26T16:37:15Z</time>
      </trkpt>
      <trkpt lat="49.3534" lon="3.65591">
        <ele>161</ele>
        <time>2020-09-26T16:38:21Z</time>
      </trkpt>
      <trkpt lat="49.35325" lon="3.65597">
        <ele>161</ele>
        <time>2020-09-26T16:38:33Z</time>
      </trkpt>
      <trkpt lat="49.35301" lon="3.65592">
        <ele>162</ele>
        <time>2020-09-26T16:38:53Z</time>
      </trkpt>
      <trkpt lat="49.35275" lon="3.65578">
        <ele>163</ele>
        <time>2020-09-26T16:39:15Z</time>
      </trkpt>
      <trkpt lat="49.35211" lon="3.65556">
        <ele>164</ele>
        <time>2020-09-26T16:40:07Z</time>
      </trkpt>
      <trkpt lat="49.35187" lon="3.65552">
        <ele>165</ele>
        <time>2020-09-26T16:40:27Z</time>
      </trkpt>
      <trkpt lat="49.35133" lon="3.65534">
        <ele>166</ele>
        <time>2020-09-26T16:41:11Z</time>
      </trkpt>
      <trkpt lat="49.35114" lon="3.65521">
        <ele>166</ele>
        <time>2020-09-26T16:41:28Z</time>
      </trkpt>
      <trkpt lat="49.35098" lon="3.6552">
        <ele>166</ele>
        <time>2020-09-26T16:41:40Z</time>
      </trkpt>
      <trkpt lat="49.35095" lon="3.65528">
        <ele>166</ele>
        <time>2020-09-26T16:41:45Z</time>
      </trkpt>
      <trkpt lat="49.35096" lon="3.65559">
        <ele>165</ele>
        <time>2020-09-26T16:42:01Z</time>
      </trkpt>
      <trkpt lat="49.35101" lon="3.65588">
        <ele>165</ele>
        <time>2020-09-26T16:42:17Z</time>
      </trkpt>
      <trkpt lat="49.35118" lon="3.65843">
        <ele>161</ele>
        <time>2020-09-26T16:44:31Z</time>
      </trkpt>
      <trkpt lat="49.351" lon="3.65957">
        <ele>164</ele>
        <time>2020-09-26T16:45:32Z</time>
      </trkpt>
      <trkpt lat="49.35105" lon="3.66363">
        <ele>172</ele>
        <time>2020-09-26T16:49:04Z</time>
      </trkpt>
      <trkpt lat="49.35095" lon="3.66471">
        <ele>172</ele>
        <time>2020-09-26T16:50:01Z</time>
      </trkpt>
      <trkpt lat="49.35048" lon="3.66769">
        <ele>168</ele>
        <time>2020-09-26T16:52:41Z</time>
      </trkpt>
      <trkpt lat="49.35037" lon="3.66878">
        <ele>166</ele>
        <time>2020-09-26T16:53:38Z</time>
      </trkpt>
      <trkpt lat="49.3504" lon="3.66885">
        <ele>166</ele>
        <time>2020-09-26T16:53:42Z</time>
      </trkpt>
      <trkpt lat="49.35067" lon="3.669">
        <ele>166</ele>
        <time>2020-09-26T16:54:05Z</time>
      </trkpt>
      <trkpt lat="49.35097" lon="3.6691">
        <ele>166</ele>
        <time>2020-09-26T16:54:30Z</time>
      </trkpt>
      <trkpt lat="49.35273" lon="3.6699">
        <ele>165</ele>
        <time>2020-09-26T16:56:57Z</time>
      </trkpt>
      <trkpt lat="49.35405" lon="3.67071">
        <ele>164</ele>
        <time>2020-09-26T16:58:51Z</time>
      </trkpt>
      <trkpt lat="49.35459" lon="3.67085">
        <ele>163</ele>
        <time>2020-09-26T16:59:35Z</time>
      </trkpt>
      <trkpt lat="49.35573" lon="3.67126">
        <ele>160</ele>
        <time>2020-09-26T17:01:08Z</time>
      </trkpt>
      <trkpt lat="49.35611" lon="3.67143">
        <ele>158</ele>
        <time>2020-09-26T17:01:40Z</time>
      </trkpt>
      <trkpt lat="49.35632" lon="3.67157">
        <ele>156</ele>
        <time>2020-09-26T17:01:58Z</time>
      </trkpt>
      <trkpt lat="49.35638" lon="3.67167">
        <ele>156</ele>
        <time>2020-09-26T17:02:06Z</time>
      </trkpt>
      <trkpt lat="49.35649" lon="3.67175">
        <ele>155</ele>
        <time>2020-09-26T17:02:15Z</time>
      </trkpt>
      <trkpt lat="49.357" lon="3.67194">
        <ele>151</ele>
        <time>2020-09-26T17:02:57Z</time>
      </trkpt>
      <trkpt lat="49.3572" lon="3.67212">
        <ele>150</ele>
        <time>2020-09-26T17:03:16Z</time>
      </trkpt>
      <trkpt lat="49.35734" lon="3.67219">
        <ele>149</ele>
        <time>2020-09-26T17:03:28Z</time>
      </trkpt>
      <trkpt lat="49.35767" lon="3.67293">
        <ele>145</ele>
        <time>2020-09-26T17:04:14Z</time>
      </trkpt>
      <trkpt lat="49.35768" lon="3.67316">
        <ele>145</ele>
        <time>2020-09-26T17:04:26Z</time>
      </trkpt>
      <trkpt lat="49.35753" lon="3.67334">
        <ele>148</ele>
        <time>2020-09-26T17:04:42Z</time>
      </trkpt>
      <trkpt lat="49.3577" lon="3.67298">
        <ele>144</ele>
        <time>2020-09-26T17:05:05Z</time>
      </trkpt>
      <trkpt lat="49.35769" lon="3.67283">
        <ele>144</ele>
        <time>2020-09-26T17:05:13Z</time>
      </trkpt>
      <trkpt lat="49.35761" lon="3.67266">
        <ele>146</ele>
        <time>2020-09-26T17:05:24Z</time>
      </trkpt>
      <trkpt lat="49.3576" lon="3.67279">
        <ele>146</ele>
        <time>2020-09-26T17:05:31Z</time>
      </trkpt>
      <trkpt lat="49.35788" lon="3.67324">
        <ele>141</ele>
        <time>2020-09-26T17:06:03Z</time>
      </trkpt>
      <trkpt lat="49.35801" lon="3.67354">
        <ele>141</ele>
        <time>2020-09-26T17:06:22Z</time>
      </trkpt>
      <trkpt lat="49.35818" lon="3.67378">
        <ele>141</ele>
        <time>2020-09-26T17:06:40Z</time>
      </trkpt>
      <trkpt lat="49.35832" lon="3.67412">
        <ele>144</ele>
        <time>2020-09-26T17:07:01Z</time>
      </trkpt>
      <trkpt lat="49.35861" lon="3.67461">
        <ele>142</ele>
        <time>2020-09-26T17:07:36Z</time>
      </trkpt>
      <trkpt lat="49.35892" lon="3.67489">
        <ele>142</ele>
        <time>2020-09-26T17:08:05Z</time>
      </trkpt>
      <trkpt lat="49.35967" lon="3.67537">
        <ele>138</ele>
        <time>2020-09-26T17:09:10Z</time>
      </trkpt>
      <trkpt lat="49.3598" lon="3.67545">
        <ele>138</ele>
        <time>2020-09-26T17:09:21Z</time>
      </trkpt>
      <trkpt lat="49.36001" lon="3.67549">
        <ele>136</ele>
        <time>2020-09-26T17:09:38Z</time>
      </trkpt>
      <trkpt lat="49.3601" lon="3.67542">
        <ele>135</ele>
        <time>2020-09-26T17:09:46Z</time>
      </trkpt>
      <trkpt lat="49.36015" lon="3.6753">
        <ele>134</ele>
        <time>2020-09-26T17:09:53Z</time>
      </trkpt>
      <trkpt lat="49.36015" lon="3.6751">
        <ele>132</ele>
        <time>2020-09-26T17:10:04Z</time>
      </trkpt>
      <trkpt lat="49.3601" lon="3.67497">
        <ele>131</ele>
        <time>2020-09-26T17:10:12Z</time>
      </trkpt>
      <trkpt lat="49.3599" lon="3.67469">
        <ele>128</ele>
        <time>2020-09-26T17:10:33Z</time>
      </trkpt>
      <trkpt lat="49.35948" lon="3.67443">
        <ele>129</ele>
        <time>2020-09-26T17:11:09Z</time>
      </trkpt>
      <trkpt lat="49.35938" lon="3.67429">
        <ele>128</ele>
        <time>2020-09-26T17:11:20Z</time>
      </trkpt>
      <trkpt lat="49.35908" lon="3.67409">
        <ele>128</ele>
        <time>2020-09-26T17:11:47Z</time>
      </trkpt>
      <trkpt lat="49.35883" lon="3.67382">
        <ele>130</ele>
        <time>2020-09-26T17:12:11Z</time>
      </trkpt>
      <trkpt lat="49.35853" lon="3.67332">
        <ele>129</ele>
        <time>2020-09-26T17:12:46Z</time>
      </trkpt>
      <trkpt lat="49.35829" lon="3.67276">
        <ele>131</ele>
        <time>2020-09-26T17:13:21Z</time>
      </trkpt>
      <trkpt lat="49.35811" lon="3.67202">
        <ele>135</ele>
        <time>2020-09-26T17:14:03Z</time>
      </trkpt>
      <trkpt lat="49.35805" lon="3.6719">
        <ele>136</ele>
        <time>2020-09-26T17:14:10Z</time>
      </trkpt>
      <trkpt lat="49.35813" lon="3.67197">
        <ele>134</ele>
        <time>2020-09-26T17:14:18Z</time>
      </trkpt>
      <trkpt lat="49.35827" lon="3.67191">
        <ele>131</ele>
        <time>2020-09-26T17:14:29Z</time>
      </trkpt>
      <trkpt lat="49.35842" lon="3.67166">
        <ele>129</ele>
        <time>2020-09-26T17:14:47Z</time>
      </trkpt>
      <trkpt lat="49.35863" lon="3.67144">
        <ele>127</ele>
        <time>2020-09-26T17:15:08Z</time>
      </trkpt>
      <trkpt lat="49.35883" lon="3.67103">
        <ele>127</ele>
        <time>2020-09-26T17:15:34Z</time>
      </trkpt>
      <trkpt lat="49.35897" lon="3.6706">
        <ele>129</ele>
        <time>2020-09-26T17:15:59Z</time>
      </trkpt>
      <trkpt lat="49.35912" lon="3.67002">
        <ele>131</ele>
        <time>2020-09-26T17:16:32Z</time>
      </trkpt>
      <trkpt lat="49.35919" lon="3.66956">
        <ele>133</ele>
        <time>2020-09-26T17:16:57Z</time>
      </trkpt>
      <trkpt lat="49.35933" lon="3.66928">
        <ele>132</ele>
        <time>2020-09-26T17:17:15Z</time>
      </trkpt>
      <trkpt lat="49.35944" lon="3.66894">
        <ele>133</ele>
        <time>2020-09-26T17:17:35Z</time>
      </trkpt>
      <trkpt lat="49.35955" lon="3.66879">
        <ele>133</ele>
        <time>2020-09-26T17:17:47Z</time>
      </trkpt>
      <trkpt lat="49.35968" lon="3.66875">
        <ele>131</ele>
        <time>2020-09-26T17:17:57Z</time>
      </trkpt>
      <trkpt lat="49.35985" lon="3.66859">
        <ele>130</ele>
        <time>2020-09-26T17:18:13Z</time>
      </trkpt>
      <trkpt lat="49.36" lon="3.66853">
        <ele>128</ele>
        <time>2020-09-26T17:18:26Z</time>
      </trkpt>
      <trkpt lat="49.36022" lon="3.66782">
        <ele>128</ele>
        <time>2020-09-26T17:19:07Z</time>
      </trkpt>
      <trkpt lat="49.36022" lon="3.66796">
        <ele>127</ele>
        <time>2020-09-26T17:19:14Z</time>
      </trkpt>
      <trkpt lat="49.36008" lon="3.66853">
        <ele>126</ele>
        <time>2020-09-26T17:19:46Z</time>
      </trkpt>
      <trkpt lat="49.36028" lon="3.66835">
        <ele>122</ele>
        <time>2020-09-26T17:20:04Z</time>
      </trkpt>
      <trkpt lat="49.36039" lon="3.66793">
        <ele>123</ele>
        <time>2020-09-26T17:20:28Z</time>
      </trkpt>
      <trkpt lat="49.36059" lon="3.66779">
        <ele>120</ele>
        <time>2020-09-26T17:20:45Z</time>
      </trkpt>
      <trkpt lat="49.36093" lon="3.6677">
        <ele>114</ele>
        <time>2020-09-26T17:21:13Z</time>
      </trkpt>
      <trkpt lat="49.36085" lon="3.6677">
        <ele>115</ele>
        <time>2020-09-26T17:21:19Z</time>
      </trkpt>
      <trkpt lat="49.36054" lon="3.66783">
        <ele>121</ele>
        <time>2020-09-26T17:21:45Z</time>
      </trkpt>
      <trkpt lat="49.36048" lon="3.66782">
        <ele>122</ele>
        <time>2020-09-26T17:21:50Z</time>
      </trkpt>
      <trkpt lat="49.36043" lon="3.66791">
        <ele>122</ele>
        <time>2020-09-26T17:21:56Z</time>
      </trkpt>
      <trkpt lat="49.36051" lon="3.66827">
        <ele>117</ele>
        <time>2020-09-26T17:22:16Z</time>
      </trkpt>
      <trkpt lat="49.36058" lon="3.66836">
        <ele>115</ele>
        <time>2020-09-26T17:22:23Z</time>
      </trkpt>
      <trkpt lat="49.36061" lon="3.66853">
        <ele>113</ele>
        <time>2020-09-26T17:22:32Z</time>
      </trkpt>
      <trkpt lat="49.36074" lon="3.66874">
        <ele>108</ele>
        <time>2020-09-26T17:22:48Z</time>
      </trkpt>
      <trkpt lat="49.36081" lon="3.66897">
        <ele>105</ele>
        <time>2020-09-26T17:23:01Z</time>
      </trkpt>
      <trkpt lat="49.36084" lon="3.66925">
        <ele>103</ele>
        <time>2020-09-26T17:23:16Z</time>
      </trkpt>
      <trkpt lat="49.36077" lon="3.66968">
        <ele>100</ele>
        <time>2020-09-26T17:23:39Z</time>
      </trkpt>
      <trkpt lat="49.36077" lon="3.66994">
        <ele>97</ele>
        <time>2020-09-26T17:23:52Z</time>
      </trkpt>
      <trkpt lat="49.36087" lon="3.67068">
        <ele>92</ele>
        <time>2020-09-26T17:24:32Z</time>
      </trkpt>
      <trkpt lat="49.36087" lon="3.67109">
        <ele>92</ele>
        <time>2020-09-26T17:24:53Z</time>
      </trkpt>
      <trkpt lat="49.36107" lon="3.67192">
        <ele>93</ele>
        <time>2020-09-26T17:25:39Z</time>
      </trkpt>
      <trkpt lat="49.36151" lon="3.67291">
        <ele>96</ele>
        <time>2020-09-26T17:26:42Z</time>
      </trkpt>
      <trkpt lat="49.36172" lon="3.67376">
        <ele>101</ele>
        <time>2020-09-26T17:27:29Z</time>
      </trkpt>
      <trkpt lat="49.36171" lon="3.67451">
        <ele>112</ele>
        <time>2020-09-26T17:28:08Z</time>
      </trkpt>
      <trkpt lat="49.36166" lon="3.67445">
        <ele>112</ele>
        <time>2020-09-26T17:28:13Z</time>
      </trkpt>
      <trkpt lat="49.36175" lon="3.67436">
        <ele>109</ele>
        <time>2020-09-26T17:28:22Z</time>
      </trkpt>
      <trkpt lat="49.36168" lon="3.67443">
        <ele>111</ele>
        <time>2020-09-26T17:28:29Z</time>
      </trkpt>
      <trkpt lat="49.36178" lon="3.67449">
        <ele>110</ele>
        <time>2020-09-26T17:28:37Z</time>
      </trkpt>
      <trkpt lat="49.36193" lon="3.67469">
        <ele>109</ele>
        <time>2020-09-26T17:28:53Z</time>
      </trkpt>
      <trkpt lat="49.36202" lon="3.67473">
        <ele>107</ele>
        <time>2020-09-26T17:29:01Z</time>
      </trkpt>
      <trkpt lat="49.36221" lon="3.67473">
        <ele>102</ele>
        <time>2020-09-26T17:29:16Z</time>
      </trkpt>
      <trkpt lat="49.36252" lon="3.67466">
        <ele>94</ele>
        <time>2020-09-26T17:29:41Z</time>
      </trkpt>
      <trkpt lat="49.36284" lon="3.67467">
        <ele>90</ele>
        <time>2020-09-26T17:30:07Z</time>
      </trkpt>
      <trkpt lat="49.3632" lon="3.67461">
        <ele>86</ele>
        <time>2020-09-26T17:30:36Z</time>
      </trkpt>
      <trkpt lat="49.36418" lon="3.67469">
        <ele>85</ele>
        <time>2020-09-26T17:31:54Z</time>
      </trkpt>
      <trkpt lat="49.36428" lon="3.67458">
        <ele>85</ele>
        <time>2020-09-26T17:32:04Z</time>
      </trkpt>
      <trkpt lat="49.36486" lon="3.67423">
        <ele>83</ele>
        <time>2020-09-26T17:32:54Z</time>
      </trkpt>
      <trkpt lat="49.36501" lon="3.67407">
        <ele>82</ele>
        <time>2020-09-26T17:33:08Z</time>
      </trkpt>
      <trkpt lat="49.36549" lon="3.67371">
        <ele>81</ele>
        <time>2020-09-26T17:33:51Z</time>
      </trkpt>
      <trkpt lat="49.36575" lon="3.6734">
        <ele>82</ele>
        <time>2020-09-26T17:34:18Z</time>
      </trkpt>
      <trkpt lat="49.36641" lon="3.67279">
        <ele>84</ele>
        <time>2020-09-26T17:35:19Z</time>
      </trkpt>
      <trkpt lat="49.36754" lon="3.67242">
        <ele>88</ele>
        <time>2020-09-26T17:36:52Z</time>
      </trkpt>
      <trkpt lat="49.36765" lon="3.67243">
        <ele>87</ele>
        <time>2020-09-26T17:37:01Z</time>
      </trkpt>
      <trkpt lat="49.36774" lon="3.67237">
        <ele>87</ele>
        <time>2020-09-26T17:37:08Z</time>
      </trkpt>
      <trkpt lat="49.36793" lon="3.67236">
        <ele>85</ele>
        <time>2020-09-26T17:37:24Z</time>
      </trkpt>
      <trkpt lat="49.36787" lon="3.67221">
        <ele>87</ele>
        <time>2020-09-26T17:37:33Z</time>
      </trkpt>
      <trkpt lat="49.36762" lon="3.67187">
        <ele>93</ele>
        <time>2020-09-26T17:38:00Z</time>
      </trkpt>
      <trkpt lat="49.36741" lon="3.67173">
        <ele>96</ele>
        <time>2020-09-26T17:38:18Z</time>
      </trkpt>
      <trkpt lat="49.3672" lon="3.6713">
        <ele>99</ele>
        <time>2020-09-26T17:38:46Z</time>
      </trkpt>
      <trkpt lat="49.36703" lon="3.67108">
        <ele>101</ele>
        <time>2020-09-26T17:39:04Z</time>
      </trkpt>
      <trkpt lat="49.36695" lon="3.67099">
        <ele>101</ele>
        <time>2020-09-26T17:39:12Z</time>
      </trkpt>
      <trkpt lat="49.36668" lon="3.67084">
        <ele>102</ele>
        <time>2020-09-26T17:39:35Z</time>
      </trkpt>
      <trkpt lat="49.36663" lon="3.67073">
        <ele>103</ele>
        <time>2020-09-26T17:39:42Z</time>
      </trkpt>
      <trkpt lat="49.36653" lon="3.66942">
        <ele>116</ele>
        <time>2020-09-26T17:40:50Z</time>
      </trkpt>
      <trkpt lat="49.36651" lon="3.66858">
        <ele>123</ele>
        <time>2020-09-26T17:41:34Z</time>
      </trkpt>
      <trkpt lat="49.36645" lon="3.66837">
        <ele>123</ele>
        <time>2020-09-26T17:41:46Z</time>
      </trkpt>
      <trkpt lat="49.36647" lon="3.66779">
        <ele>126</ele>
        <time>2020-09-26T17:42:17Z</time>
      </trkpt>
      <trkpt lat="49.36639" lon="3.66763">
        <ele>125</ele>
        <time>2020-09-26T17:42:27Z</time>
      </trkpt>
      <trkpt lat="49.36639" lon="3.66736">
        <ele>127</ele>
        <time>2020-09-26T17:42:41Z</time>
      </trkpt>
      <trkpt lat="49.36614" lon="3.66676">
        <ele>130</ele>
        <time>2020-09-26T17:43:18Z</time>
      </trkpt>
      <trkpt lat="49.36593" lon="3.66638">
        <ele>131</ele>
        <time>2020-09-26T17:43:44Z</time>
      </trkpt>
      <trkpt lat="49.36536" lon="3.66564">
        <ele>129</ele>
        <time>2020-09-26T17:44:44Z</time>
      </trkpt>
      <trkpt lat="49.365" lon="3.66529">
        <ele>127</ele>
        <time>2020-09-26T17:45:18Z</time>
      </trkpt>
      <trkpt lat="49.36483" lon="3.66503">
        <ele>127</ele>
        <time>2020-09-26T17:45:37Z</time>
      </trkpt>
      <trkpt lat="49.3646" lon="3.66484">
        <ele>127</ele>
        <time>2020-09-26T17:45:58Z</time>
      </trkpt>
      <trkpt lat="49.36407" lon="3.66452">
        <ele>128</ele>
        <time>2020-09-26T17:46:44Z</time>
      </trkpt>
      <trkpt lat="49.36385" lon="3.66446">
        <ele>128</ele>
        <time>2020-09-26T17:47:02Z</time>
      </trkpt>
      <trkpt lat="49.3637" lon="3.6645">
        <ele>128</ele>
        <time>2020-09-26T17:47:14Z</time>
      </trkpt>
      <trkpt lat="49.36344" lon="3.66448">
        <ele>129</ele>
        <time>2020-09-26T17:47:35Z</time>
      </trkpt>
      <trkpt lat="49.36324" lon="3.66453">
        <ele>128</ele>
        <time>2020-09-26T17:47:51Z</time>
      </trkpt>
      <trkpt lat="49.3625" lon="3.66457">
        <ele>129</ele>
        <time>2020-09-26T17:48:50Z</time>
      </trkpt>
      <trkpt lat="49.36241" lon="3.66462">
        <ele>129</ele>
        <time>2020-09-26T17:48:58Z</time>
      </trkpt>
      <trkpt lat="49.36238" lon="3.66469">
        <ele>129</ele>
        <time>2020-09-26T17:49:02Z</time>
      </trkpt>
      <trkpt lat="49.36235" lon="3.66467">
        <ele>129</ele>
        <time>2020-09-26T17:49:05Z</time>
      </trkpt>
      <trkpt lat="49.36243" lon="3.66434">
        <ele>131</ele>
        <time>2020-09-26T17:49:23Z</time>
      </trkpt>
      <trkpt lat="49.36245" lon="3.66388">
        <ele>133</ele>
        <time>2020-09-26T17:49:47Z</time>
      </trkpt>
      <trkpt lat="49.36245" lon="3.6631">
        <ele>134</ele>
        <time>2020-09-26T17:50:28Z</time>
      </trkpt>
      <trkpt lat="49.36241" lon="3.66274">
        <ele>133</ele>
        <time>2020-09-26T17:50:47Z</time>
      </trkpt>
      <trkpt lat="49.36244" lon="3.66224">
        <ele>133</ele>
        <time>2020-09-26T17:51:13Z</time>
      </trkpt>
      <trkpt lat="49.3624" lon="3.66179">
        <ele>132</ele>
        <time>2020-09-26T17:51:37Z</time>
      </trkpt>
      <trkpt lat="49.36243" lon="3.66153">
        <ele>132</ele>
        <time>2020-09-26T17:51:51Z</time>
      </trkpt>
      <trkpt lat="49.36262" lon="3.66112">
        <ele>131</ele>
        <time>2020-09-26T17:52:17Z</time>
      </trkpt>
      <trkpt lat="49.36273" lon="3.66103">
        <ele>130</ele>
        <time>2020-09-26T17:52:27Z</time>
      </trkpt>
      <trkpt lat="49.36292" lon="3.66098">
        <ele>129</ele>
        <time>2020-09-26T17:52:42Z</time>
      </trkpt>
      <trkpt lat="49.36319" lon="3.66084">
        <ele>128</ele>
        <time>2020-09-26T17:53:05Z</time>
      </trkpt>
      <trkpt lat="49.36385" lon="3.66089">
        <ele>124</ele>
        <time>2020-09-26T17:53:58Z</time>
      </trkpt>
      <trkpt lat="49.36439" lon="3.66073">
        <ele>121</ele>
        <time>2020-09-26T17:54:42Z</time>
      </trkpt>
      <trkpt lat="49.36457" lon="3.66064">
        <ele>120</ele>
        <time>2020-09-26T17:54:57Z</time>
      </trkpt>
      <trkpt lat="49.36486" lon="3.66038">
        <ele>117</ele>
        <time>2020-09-26T17:55:24Z</time>
      </trkpt>
      <trkpt lat="49.36498" lon="3.66037">
        <ele>117</ele>
        <time>2020-09-26T17:55:34Z</time>
      </trkpt>
      <trkpt lat="49.36542" lon="3.66019">
        <ele>116</ele>
        <time>2020-09-26T17:56:10Z</time>
      </trkpt>
      <trkpt lat="49.36553" lon="3.66011">
        <ele>114</ele>
        <time>2020-09-26T17:56:20Z</time>
      </trkpt>
      <trkpt lat="49.36596" lon="3.6596">
        <ele>106</ele>
        <time>2020-09-26T17:57:03Z</time>
      </trkpt>
      <trkpt lat="49.36618" lon="3.65953">
        <ele>105</ele>
        <time>2020-09-26T17:57:21Z</time>
      </trkpt>
      <trkpt lat="49.36634" lon="3.65953">
        <ele>105</ele>
        <time>2020-09-26T17:57:34Z</time>
      </trkpt>
      <trkpt lat="49.36635" lon="3.6595">
        <ele>105</ele>
        <time>2020-09-26T17:57:36Z</time>
      </trkpt>
      <trkpt lat="49.36617" lon="3.65943">
        <ele>103</ele>
        <time>2020-09-26T17:57:51Z</time>
      </trkpt>
      <trkpt lat="49.36594" lon="3.65947">
        <ele>104</ele>
        <time>2020-09-26T17:58:09Z</time>
      </trkpt>
      <trkpt lat="49.36579" lon="3.6594">
        <ele>103</ele>
        <time>2020-09-26T17:58:22Z</time>
      </trkpt>
      <trkpt lat="49.36544" lon="3.65938">
        <ele>102</ele>
        <time>2020-09-26T17:58:50Z</time>
      </trkpt>
      <trkpt lat="49.3652" lon="3.65925">
        <ele>100</ele>
        <time>2020-09-26T17:59:10Z</time>
      </trkpt>
      <trkpt lat="49.36486" lon="3.65886">
        <ele>93</ele>
        <time>2020-09-26T17:59:44Z</time>
      </trkpt>
      <trkpt lat="49.36473" lon="3.65855">
        <ele>89</ele>
        <time>2020-09-26T18:00:04Z</time>
      </trkpt>
      <trkpt lat="49.36432" lon="3.65787">
        <ele>87</ele>
        <time>2020-09-26T18:00:52Z</time>
      </trkpt>
      <trkpt lat="49.36398" lon="3.65749">
        <ele>87</ele>
        <time>2020-09-26T18:01:26Z</time>
      </trkpt>
      <trkpt lat="49.36366" lon="3.65724">
        <ele>86</ele>
        <time>2020-09-26T18:01:54Z</time>
      </trkpt>
      <trkpt lat="49.36307" lon="3.65708">
        <ele>87</ele>
        <time>2020-09-26T18:02:42Z</time>
      </trkpt>
      <trkpt lat="49.36282" lon="3.65713">
        <ele>88</ele>
        <time>2020-09-26T18:03:03Z</time>
      </trkpt>
      <trkpt lat="49.3625" lon="3.65763">
        <ele>94</ele>
        <time>2020-09-26T18:03:39Z</time>
      </trkpt>
      <trkpt lat="49.36232" lon="3.65768">
        <ele>93</ele>
        <time>2020-09-26T18:03:54Z</time>
      </trkpt>
      <trkpt lat="49.362" lon="3.65795">
        <ele>94</ele>
        <time>2020-09-26T18:04:23Z</time>
      </trkpt>
      <trkpt lat="49.36171" lon="3.65805">
        <ele>93</ele>
        <time>2020-09-26T18:04:47Z</time>
      </trkpt>
      <trkpt lat="49.36153" lon="3.65816">
        <ele>93</ele>
        <time>2020-09-26T18:05:02Z</time>
      </trkpt>
      <trkpt lat="49.36127" lon="3.65848">
        <ele>93</ele>
        <time>2020-09-26T18:05:29Z</time>
      </trkpt>
      <trkpt lat="49.3611" lon="3.65862">
        <ele>92</ele>
        <time>2020-09-26T18:05:44Z</time>
      </trkpt>
      <trkpt lat="49.36085" lon="3.65873">
        <ele>90</ele>
        <time>2020-09-26T18:06:05Z</time>
      </trkpt>
      <trkpt lat="49.3606" lon="3.65874">
        <ele>89</ele>
        <time>2020-09-26T18:06:25Z</time>
      </trkpt>
      <trkpt lat="49.3604" lon="3.65885">
        <ele>89</ele>
        <time>2020-09-26T18:06:42Z</time>
      </trkpt>
      <trkpt lat="49.36009" lon="3.65885">
        <ele>89</ele>
        <time>2020-09-26T18:07:07Z</time>
      </trkpt>
      <trkpt lat="49.36005" lon="3.65861">
        <ele>88</ele>
        <time>2020-09-26T18:07:20Z</time>
      </trkpt>
      <trkpt lat="49.36008" lon="3.65801">
        <ele>87</ele>
        <time>2020-09-26T18:07:51Z</time>
      </trkpt>
      <trkpt lat="49.35988" lon="3.65739">
        <ele>87</ele>
        <time>2020-09-26T18:08:27Z</time>
      </trkpt>
      <trkpt lat="49.35922" lon="3.65655">
        <ele>91</ele>
        <time>2020-09-26T18:09:36Z</time>
      </trkpt>
      <trkpt lat="49.35877" lon="3.65632">
        <ele>94</ele>
        <time>2020-09-26T18:10:14Z</time>
      </trkpt>
      <trkpt lat="49.35861" lon="3.65604">
        <ele>94</ele>
        <time>2020-09-26T18:10:34Z</time>
      </trkpt>
      <trkpt lat="49.35859" lon="3.65576">
        <ele>93</ele>
        <time>2020-09-26T18:10:48Z</time>
      </trkpt>
      <trkpt lat="49.35863" lon="3.6554">
        <ele>92</ele>
        <time>2020-09-26T18:11:07Z</time>
      </trkpt>
      <trkpt lat="49.3586" lon="3.65515">
        <ele>92</ele>
        <time>2020-09-26T18:11:20Z</time>
      </trkpt>
      <trkpt lat="49.35874" lon="3.65439">
        <ele>92</ele>
        <time>2020-09-26T18:12:02Z</time>
      </trkpt>
      <trkpt lat="49.35876" lon="3.65385">
        <ele>94</ele>
        <time>2020-09-26T18:12:30Z</time>
      </trkpt>
      <trkpt lat="49.35868" lon="3.65378">
        <ele>94</ele>
        <time>2020-09-26T18:12:37Z</time>
      </trkpt>
      <trkpt lat="49.35858" lon="3.65354">
        <ele>96</ele>
        <time>2020-09-26T18:12:52Z</time>
      </trkpt>
      <trkpt lat="49.35824" lon="3.65327">
        <ele>100</ele>
        <time>2020-09-26T18:13:23Z</time>
      </trkpt>
    </trkseg>
  </trk>
</gpx>